ATLAS 5 CENTAUR DEB, 44658

Orbit data source: Space-Track

ATLAS 5 CENTAUR DEB, 44658 is space debris in HEO originally from a launch on Wed, 17 Oct 2018 UTC launched from the Air Force Eastern Test Range (AFETR). Debris objects in space refer to the collection of defunct objects orbiting the Earth. Examples of debris include non-operational satellites, rocket bodies, and fragments generated from explosions, collisions, or faulty payload assembly.

Not visible in the next 10 days
Identifier
44658, 2018-079U
Orbit
HEO
Country
Flag of USUS
Related business
Flag of USUnited Launch Alliance/Lockheed Martin (US)
Manufacturer
ULA Decatur
Mission
Spacecraft
Bus & Motor
Unknown
Mass
Unknown
Launch date (UTC)
2018-10-17 (8 years ago)
Launch vehicle
Unknown
Launch site
Air Force Eastern Test Range (AFETR)
Object type
Payload
Rocket body
Debris
Shape & HBR
Unknown shape, 1.1 m
Radar Cross Section
Medium (>0.1 m² and <1 m²)

Expand to show TLE details & history
Last TLE update: 1 day ago

TLE from 1 day ago
0 ATLAS 5 CENTAUR DEB
1 44658U 18079U   26236.24799943 -.00000202  00000-0  00000-0 0  9993
2 44658  13.7925  23.6173 4694542 332.1285   8.9952  1.81726036 48230
Epoch: 2026-08-24T05:57Z
TLE epoch observation values (Epoch: 2026-08-24T05:57:07.150Z)
Latitude
-0.00011°
Longitude
-38.15818°
Altitude
9,240.408 km
Speed
6.082 km/s
True Right ascension
01h 34m 36s
True Declination
0° 00' 00"
Sunlit
Object was in daylight at epoch
Visualization orbit readout
Latitude
Unknown
Longitude
Unknown
Altitude
Unknown
Speed
Unknown
Apparent Right ascension
Unknown
Apparent Declination
Unknown
Sunlit
N/A
Visualization observer readout
Local Sidereal Time
00:15:02
Azimuth
Unknown
Elevation
Unknown
Doppler factor
Unknown
Orbital elements
Apogee altitude
35,306.72 km
Perigee altitude
8,672.163 km
Semi-major axis
28,367.578 km
Eccentricity
0.46945
Inclination
13.7925°
RAAN
23.6173°
Arg. of periapsis
332.1285°
True anomaly
27.52524°
Mean anomaly
8.9952°
Eccentric anomaly
16.7446°
Mean motion
0.45427 °/min
Orbital period
792.49 mins
BSTAR
0
Loading maneuver chart data...
Computing Atmospheric mass density...

Documentation

Showing up to 5 results
|